[TLELIST] Archives

 

[TLELIST] Current TLEs

May 24th 2026 PDT

0 HST 1 20580U 90037B 26143.56214552 .00005181 00000-0 16332-3 0 9993 2 20580 28.4737 248.8387 0001366 221.0087 139.0406 15.30462215784791 0 ISS (ZARYA) 1 25544U 98067A 26144.19669721 .00007438 00000-0 14130-3 0 9992 2 25544 51.6327 58.8652 0007496 92.3340 267.8507 15.49341091568031 0 CXO 1 25867U 99040B 26145.57568504 .00000437 00000-0 00000-0 0 9992 2 25867 55.8479 117.2365 7871499 310.4614 0.0224 0.37808626 17238 ...Continue Reading

[TLELIST] Current TLEs

May 23rd 2026 PDT

0 HST 1 20580U 90037B 26142.64923016 .00005210 00000-0 16433-3 0 9998 2 20580 28.4740 255.0753 0001441 208.0715 151.9803 15.30452947784659 0 ISS (ZARYA) 1 25544U 98067A 26142.51965852 .00007327 00000-0 13945-3 0 9990 2 25544 51.6330 67.1668 0007537 86.3178 273.8672 15.49313075567774 0 CXO 1 25867U 99040B 26145.57568503 .00000437 00000-0 00000+0 0 9990 2 25867 55.8479 117.2365 7871499 310.4614 0.0224 0.37808626 17238 ...Continue Reading

[TLELIST] Current TLEs

May 22nd 2026 PDT

0 HST 1 20580U 90037B 26141.54068256 .00005122 00000-0 16146-3 0 9995 2 20580 28.4744 262.6481 0001536 193.8764 166.1790 15.30441618784482 0 ISS (ZARYA) 1 25544U 98067A 26142.19714759 .00006944 00000-0 13263-3 0 9999 2 25544 51.6329 68.7630 0007536 85.1158 275.0691 15.49307197567720 0 CXO 1 25867U 99040B 26142.93065120 .00000519 00000-0 00000-0 0 9996 2 25867 55.8201 117.2945 7878376 310.4889 359.9500 0.37806180 17225 ...Continue Reading

[TLELIST] Current TLEs

May 21st 2026 PDT

0 HST 1 20580U 90037B 26140.69296433 .00004794 00000-0 15071-3 0 9990 2 20580 28.4746 268.4391 0001569 182.9963 177.0623 15.30432683784358 0 ISS (ZARYA) 1 25544U 98067A 26141.16510469 .00005835 00000-0 11282-3 0 9994 2 25544 51.6328 73.8715 0007529 81.3651 278.8190 15.49291753567565 0 CXO 1 25867U 99040B 26142.93065120 .00000519 00000-0 00000-0 0 9996 2 25867 55.8201 117.2945 7878376 310.4889 359.9500 0.37806180 17225 ...Continue Reading

[TLELIST] Current TLEs

May 20th 2026 PDT

0 HST 1 20580U 90037B 26140.04086980 .00004952 00000-0 15593-3 0 9998 2 20580 28.4748 272.8935 0001618 175.4764 184.5847 15.30427240784257 0 ISS (ZARYA) 1 25544U 98067A 26140.13305209 .00004938 00000-0 96790-4 0 9995 2 25544 51.6329 78.9799 0007535 77.7466 282.4366 15.49278426567405 0 CXO 1 25867U 99040B 26142.93065120 .00000519 00000-0 00000-0 0 9996 2 25867 55.8201 117.2945 7878376 310.4889 359.9500 0.37806180 17225 ...Continue Reading

[TLELIST] Current TLEs

May 19th 2026 PDT

0 HST 1 20580U 90037B 26139.06272356 .00004780 00000-0 15030-3 0 9997 2 20580 28.4748 279.5747 0001696 164.4919 195.5729 15.30417978784100 0 ISS (ZARYA) 1 25544U 98067A 26139.16549517 .00005281 00000-0 10297-3 0 9997 2 25544 51.6326 83.7685 0007549 74.4022 285.7799 15.49268281567254 0 CXO 1 25867U 99040B 26140.28492096 .00000595 00000-0 00000-0 0 9992 2 25867 55.7802 117.3662 7885402 310.4951 359.8201 0.37805204 17218 ...Continue Reading

[TLELIST] Current TLEs

May 18th 2026 PDT

0 HST 1 20580U 90037B 26138.08457181 .00005136 00000-0 16211-3 0 9997 2 20580 28.4749 286.2564 0001786 152.3712 207.6979 15.30409410783956 0 ISS (ZARYA) 1 25544U 98067A 26138.19793205 .00006286 00000-0 12105-3 0 9990 2 25544 51.6325 88.5573 0007513 70.6653 289.5148 15.49256023567106 0 CXO 1 25867U 99040B 26140.28492096 .00000595 00000-0 00000-0 0 9992 2 25867 55.7802 117.3662 7885402 310.4951 359.8201 0.37805204 17218 ...Continue Reading

[TLELIST] Current TLEs

May 17th 2026 PDT

0 HST 1 20580U 90037B 26137.10641404 .00005213 00000-0 16467-3 0 9991 2 20580 28.4749 292.9379 0001916 142.7285 217.3444 15.30399936783807 0 ISS (ZARYA) 1 25544U 98067A 26137.03684517 .00005133 00000-0 10043-3 0 9996 2 25544 51.6321 94.3035 0007556 67.0843 293.0943 15.49238964566924 0 CXO 1 25867U 99040B 26137.63980620 .00000640 00000-0 00000-0 0 9993 2 25867 55.7295 117.4600 7892195 310.4750 359.8236 0.37807696 17216 ...Continue Reading

[TLELIST] Current TLEs

May 16th 2026 PDT

0 HST 1 20580U 90037B 26135.80219409 .00004599 00000-0 14449-3 0 9996 2 20580 28.4750 301.8457 0002071 129.2690 230.8090 15.30387000783603 0 ISS (ZARYA) 1 25544U 98067A 26136.13376888 .00005028 00000-0 98570-4 0 9990 2 25544 51.6318 98.7731 0007490 64.0316 296.1443 15.49230000566786 0 CXO 1 25867U 99040B 26137.63980620 .00000640 00000-0 00000-0 0 9993 2 25867 55.7295 117.4600 7892195 310.4750 359.8236 0.37807696 17216 ...Continue Reading

[TLELIST] Current TLEs

May 15th 2026 PDT

0 HST 1 20580U 90037B 26134.69359843 .00004465 00000-0 14011-3 0 9996 2 20580 28.4753 309.4175 0002090 119.7913 240.2891 15.30378185783439 0 ISS (ZARYA) 1 25544U 98067A 26135.16618096 .00004382 00000-0 87007-4 0 9997 2 25544 51.6313 103.5621 0007452 60.7339 299.4393 15.49219006566637 0 CXO 1 25867U 99040B 26137.63980620 .00000640 00000-0 00000-0 0 9993 2 25867 55.7295 117.4600 7892195 310.4750 359.8236 0.37807696 17216 ...Continue Reading
  • This mailing list is a public mailing list - anyone may join or leave, at any time.
  • This mailing list is announce-only.

International Space Station (ISS) / Hubble Space Telescope (HST) / Chandra X-Ray Observatory Orbital Data via EMAIL

Privacy Policy:

Private list